Flag for Germany Weather past 2 weeks in Schwerin, Mecklenburg-Western Pomerania, Germany

Now
51 °F

Low clouds.


Feels Like: 51 °F
Forecast: 46 / 57 °F
Wind: 3 mph from Northwest

Location: Schwerin

Current Time: Oct 22, 2014 at 12:32:32 PM

Latest Report: Oct 22, 2014 at 12:00 PM


Visibility: 9 mi

Pressure: 29.64 "Hg

Humidity: 92%

Dew point: 49 °F

Location of SchwerinLocation

Historic Weather in Schwerin — Graph

°F

Schwerin temperature yesterday

Maximum temperature yesterday: 56 °F (at 3:00 PM)
Minimum temperature yesterday: 51 °F (at 11:00 PM)
Average temperature yesterday: 53 °F

Past Weeks' High & Low Weather Summary

 TemperatureHumidityPressure
High71 °F (Oct 19, 4:00 PM)100% (Oct 14, 1:00 AM)30.18 "Hg (Oct 14, 1:00 AM)
Low47 °F (Oct 8, 8:00 AM)63% (Oct 8, 2:00 PM)29.38 "Hg (Oct 21, 8:00 PM)
Average56 °F89%29.81 "Hg
* Reported Oct 7 10:00 AM — Oct 22 10:00 AM, Schwerin, Weather by CustomWeather, © 2014

Note: Actual official high and low records may vary slightly from our data, if they occured in-between our weather recording intervals... More about our weather records

Advertising

Schwerin weather history for previous 24 hours

 ConditionsComfort  
Time TempWeatherWind HumidityBarometerVisibility
10:00 AM
Oct 22
49 °FLow clouds.5 mph94%29.59 "Hg9 mi
9:00 AM49 °FLow clouds.6 mph94%29.56 "Hg10 mi
8:00 AM49 °FLow clouds.6 mph96%29.54 "Hg7 mi
7:00 AM48 °FLow clouds.6 mph96%29.53 "Hg6 mi
6:00 AM48 °FDrizzle. Overcast.7 mph94%29.53 "Hg3 mi
4:00 AM48 °FOvercast.8 mph92%29.50 "Hg9 mi
3:00 AM48 °FLight rain. Overcast.7 mph94%29.50 "Hg6 mi
2:00 AM49 °FLight rain. Overcast.8 mph92%29.47 "Hg6 mi
1:00 AM50 °FLight rain. Overcast.8 mph91%29.44 "Hg8 mi
12:00 AM51 °FDrizzle. Overcast.6 mph95%29.41 "Hg7 mi
11:00 PM
Oct 21
51 °FLow clouds.5 mph92%29.41 "Hg18 mi
10:00 PM52 °FLow clouds.3 mph97%29.38 "Hg6 mi
9:00 PM52 °FLight rain. Low clouds.3 mph96%29.38 "Hg3 mi
8:00 PM52 °FLight freezing rain. Low clouds.3 mph94%29.38 "Hg4 mi
7:00 PM52 °FLight freezing rain. Overcast.3 mph93%29.41 "Hg3 mi
6:00 PM53 °FLight rain. Overcast.3 mph93%29.44 "Hg6 mi
4:00 PM54 °FLight rain. Overcast.5 mph89%29.50 "Hg7 mi
3:00 PM56 °FOvercast.5 mph83%29.55 "Hg10 mi
2:00 PM55 °FOvercast.5 mph85%29.58 "Hg7 mi
1:00 PM54 °FOvercast.6 mph86%29.62 "Hg6 mi
12:00 PM54 °FLow clouds.6 mph92%29.65 "Hg4 mi
Weather by CustomWeather, © 2014

See weather overviewHow to use our weather pages